Regional Weather Roundup
Issued by NWS

Home | Current Version | Previous Version | Text Only | Print | Product List | Glossary On
Versions: 1 2 3 4 5 6 7 8 9 10 11 12 13 14 15 16 17 18 19 20 21 22 23 24 25 26 27 28 29 30 31 32 33 34 35 36 37 38 39 40 41 42 43 44 45 46 47 48 49 50
000
ASUS43 KMPX 090410
RWRMN
WEATHER ROUNDUP FOR MINNESOTA
NATIONAL WEATHER SERVICE TWIN CITIES/CHANHASSEN MN
1100 PM CDT SAT AUG 08 2020


NOTE: "FAIR" INDICATES FEW OR NO CLOUDS BELOW 12,000 FEET WITH NO
SIGNIFICANT WEATHER AND/OR OBSTRUCTIONS TO VISIBILITY. N/A MEANS
CURRENT SKY AND/OR WEATHER CONDITIONS ARE NOT AVAILABLE.

MNZ060>063-068>070-090500-
   Twin Cities Metro

CITY           SKY/WX    TMP DP  RH WIND       PRES   REMARKS
TWIN CITIES    PTCLDY    72  66  81 SW3       29.96R
ST PAUL        PTCLDY    70  65  84 S6        29.96R
CRYSTAL        CLEAR     70  65  84 W3        29.94R
BLAINE         PTCLDY    66  66 100 S5        29.96R
LAKEVILLE      CLEAR     68  64  88 CALM      29.98R
EDEN PRAIRIE   CLEAR     68  65  90 CALM      29.95S
SOUTH ST PAUL  PTCLDY    72  65  80 CALM      29.96S
LAKE ELMO      FAIR      70  68  94 SE5       29.98R
$$
MNZ001>005-007-008-013>017-022>024-027-028-090500-
   Northwest Minnesota

CITY           SKY/WX    TMP DP  RH WIND       PRES   REMARKS
BEMIDJI        CLEAR     62  62 100 CALM      29.95R
HALLOCK        CLEAR     64  57  77 SE8       29.90S
ROSEAU         CLEAR     61  55  82 S3        29.93F
WARROAD        CLEAR     61  57  88 CALM      29.94S
THIEF RVR FALL CLEAR     64  60  87 CALM      29.94F
CROOKSTON      CLEAR     70  57  64 E3        29.93R
FOSSTON        CLEAR     63  57  82 CALM      29.95R
DETROIT LAKES    N/A     72  64  78 SE5       29.95S
MOORHEAD       CLEAR     72  63  73 CALM      29.92R
PARK RAPIDS    CLEAR     67  64  90 CALM      29.95S
MAHNOMEN       FAIR      67  64  91 E3        29.94R
$$
MNZ006-009>011-018-025>026-090500-
   North Central Minnesota

CITY           SKY/WX    TMP DP  RH WIND       PRES   REMARKS
BAUDETTE       CLEAR     60  58  92 CALM      29.94S
FLAG ISLAND      N/A     72  55  56 SW6       29.91S
INTL FALLS     CLEAR     54  53  97 CALM      29.93S
WASKISH          N/A     61  59  94 CALM      29.94S FOG
BIG FORK       CLOUDY    64  63  94 CALM      30.00S VSB 1/4
LONGVILLE      FOG       64  64 100 CALM      29.94F VSB 1/2
GRAND RAPIDS   CLEAR     68  68 100 CALM      29.96F FOG
CRANE LAKE     MOCLDY    61  59  94 CALM      29.96R
ORR            PTCLDY    64  63  94 CALM      29.94R
COOK           FOG       68  68 100 CALM      29.95R VSB 1/4
WALKER         FOG       62  62 100 CALM      29.95S VSB 1/4
$$
MNZ012-019>021-037-090500-
   Northeast Minnesota

CITY           SKY/WX    TMP DP  RH WIND       PRES   REMARKS
DULUTH         MOCLDY    75  72  90 W7        29.95R
ELY            PTCLDY    70  70 100 CALM      29.95R
HIBBING        FOG       68  67  96 CALM      29.95R VSB 1/4
EVELETH        MOCLDY    71  71  99 CALM      29.97R
DULUTH HARBOR  MOCLDY    77  73  88 SW7       29.92R
TWO HARBORS    HAZE      72  66  83 CALM      29.92S VSB 1
GRAND MARAIS     N/A     69  66  90 CALM      29.90R
G MARAIS ARPRT CLOUDY    70  66  88 CALM      29.96R FOG
$$
MNZ029>031-032-039>041-046>048-054>057-064-090500-
   West Central Minnesota

CITY           SKY/WX    TMP DP  RH WIND       PRES   REMARKS
FERGUS FALLS   PTCLDY    75  72  88 E3        29.91S
WHEATON        PTCLDY    73  70  88 CALM      29.92F
MORRIS         PTCLDY    72  72 100 SE6       29.94S FOG
ALEXANDRIA     CLEAR     73  72  96 S5        29.96S
ELBOW LAKE     FAIR      72  72 100 CALM      29.93S
WADENA         PTCLDY    66  66 100 CALM      29.94S
GLENWOOD       FOG       72  72 100 CALM      29.95S VSB 1
APPLETON       PTCLDY    73  70  88 SE7       29.92S
BENSON         PTCLDY    72  70  94 CALM      29.94S
ORTONVILLE     PTCLDY    73  72  94 SE3       29.92S
MADISON        PTCLDY    73  72  94 SE3       29.93S
WILLMAR        FAIR      70  66  88 CALM      29.97S
$$
MNZ033>034-036-042>043-049>051-058-059-090500-
   Central Minnesota

CITY           SKY/WX    TMP DP  RH WIND       PRES   REMARKS
ST CLOUD       CLEAR     68  64  87 S3        29.94R
SAUK CENTRE    FAIR      72  71  99 S3        29.95R
PAYNESVILLE    CLEAR     71  72 100 CALM      29.95S
AITKIN         FOG       70  66  88 CALM      29.93S VSB 3/4
PINE RIVER     MOCLDY    66  64  94 CALM      29.98R
BRAINERD       PTCLDY    74  70  87 CALM      29.94S FOG
STAPLES        CLEAR     66  64  94 CALM      29.94S
LONG PRAIRIE   FOG       70  68  94 CALM      29.95S VSB 3/4
LITTLE FALLS     N/A     72  72 100 CALM      29.94S
CAMP RIPLEY    FAIR      73  72  96 CALM      29.94F
LITCHFIELD     CLEAR     68  68 100 CALM      29.96R
BUFFALO        CLEAR     64  61  90 MISG      29.97S
MAPLE LAKE       N/A     67  67  97 CALM      29.97S
HUTCHINSON     CLEAR     66  66  99 CALM      29.97R
$$
MNZ037-044-045-052-053-090500-
   East Central Minnesota

CITY           SKY/WX    TMP DP  RH WIND       PRES   REMARKS
PRINCETON      CLEAR     72  68  88 CALM      29.95R
MORA           CLEAR     70  70 100 CALM      29.96F FOG
CAMBRIDGE      CLEAR     72  63  73 NW6       29.95R
RUSH CITY      PTCLDY    70  68  95 CALM      29.94S FOG
MOOSE LAKE       N/A     72  70  94 CALM      29.92S
HINCKLEY       FAIR      72  72 100 CALM      29.94S FOG
CLOQUET        MOCLDY    75  72  88 CALM      29.95R
MCGREGOR       PTCLDY    75  73  94 CALM      29.95R
$$
MNZ071>073-080-081-089-090-097-098-090500-
   Southwest Minnesota

CITY           SKY/WX    TMP DP  RH WIND       PRES   REMARKS
MONTEVIDEO     PTCLDY    70  64  83 S6        29.94S
GRANITE FALLS  PTCLDY    71  68  89 E3        29.95S
CANBY          PTCLDY    73  70  88 SE3       29.95S
MARSHALL       PTCLDY    71  70  96 NE5       29.95R
REDWOOD FALLS  PTCLDY    68  66  93 E5        29.93F
OLIVIA         CLEAR     66  64  94 CALM      29.93F
PIPESTONE        N/A     75  72  88 S8        29.96R
WINDOM         PTCLDY    75  70  83 SE12      29.93F
WORTHINGTON    PTCLDY    76  71  85 S10       29.96F
JACKSON        PTCLDY    75  70  83 S10       29.97F
TRACY          CLEAR     72  67  86 CALM      29.95R FOG
SLAYTON        CLEAR     74  63  66 S14       29.95S
$$
MNZ065>067-074>077-082>085-091>093-090500-
   South Central Minnesota

CITY           SKY/WX    TMP DP  RH WIND       PRES   REMARKS
MANKATO        CLEAR     69  68  96 NE5       29.97S
NEW ULM        PTCLDY    70  64  83 E5        29.95S
ST JAMES         N/A     70  70 100 CALM      29.95S
GLENCOE        CLEAR     65  64  94 CALM      29.96R
FARIBAULT      CLEAR     66  64  94 CALM      29.98R
OWATONNA       CLEAR     68  64  88 CALM      29.98S
ALBERT LEA     CLEAR     73  68  83 NE6       29.98R
$$
MNZ078>079-086>088-094>096-090500-
   Southeast Minnesota

CITY           SKY/WX    TMP DP  RH WIND       PRES   REMARKS
ROCHESTER      MOCLDY    73  64  73 W16       29.99R
RED WING       PTCLDY    68  63  83 W5        29.96R
STANTON        PTCLDY    67  64  87 E7        29.96S
DODGE CENTER   PTCLDY    72  64  78 NW12G18   30.01R
WINONA         MOCLDY    70  68  94 E6        29.94F
AUSTIN         PTCLDY    72  68  88 NW7       29.99R
PRESTON        CLOUDY    73  66  81 NW12      30.00R
$$
ABBREVIATIONS USED IN REMARKS
   TC - TEMPERATURES IN CELSIUS
  WCI - WIND CHILL INDEX
   HX - HEAT INDEX
  VSB - VISIBILITY
$$



USA.gov is the U.S. government's official web portal to all federal, state and local government web resources and services.